Claremore, OK

9:12 AM CDT on September 22, 2017 (GMT -0500)
Claremore Regional

Weather History for KGCM - January, 2014

Change the Weather History Date:

Friday, January 17, 2014

  Actual Average (KTUL) Record (KTUL)
Temperature  
Mean Temperature 34 °F -  
Max Temperature 42 °F 46 °F 73 °F (1952)
Min Temperature 26 °F 26 °F -3 °F (1930)
Degree Days  
Heating Degree Days 31    
Moisture  
Dew Point 14 °F    
Average Humidity 47    
Maximum Humidity 69    
Minimum Humidity 29    
Precipitation  
Precipitation 0.00 in - - ()
Sea Level Pressure  
Sea Level Pressure 30.23 in    
Wind  
Wind Speed 11 mph (NW)    
Max Wind Speed 18 mph    
Max Gust Speed 29 mph    
Visibility 10 miles    
Events      
Averages and records for this station are not official NWS values.
T = Trace of Precipitation, MM = Missing Value Source: NWS Daily Summary

Daily Weather History Graph

Daily Weather History Graph

Search for Another Location

Airport or City:

Trip Planner

Search our weather history database for the weather conditions in past years. The results will help you decide how hot, cold, wet, or windy it might be!

Date:

Astronomy

Jan. 17, 2014 Rise Set
Actual Time 7:31 AM CST 5:32 PM CST
Civil Twilight 7:03 AM CST 6:00 PM CST
Nautical Twilight 6:32 AM CST 6:32 PM CST
Astronomical Twilight 6:01 AM CST 7:02 PM CST
Moon 7:15 PM CST (1/17) 8:04 AM CST (1/17)
Length of Visible Light 10h 56m
Length of Day
10h 00m
Full, 98% of the Moon is Illuminated
Jan 17
Full
Jan 23
Last Quarter
Jan 30
New
Feb 6
First Quarter
Feb 14
Full

Hourly Weather History & Observations

Time (CST) Temp. Windchill Dew Point Humidity Pressure Visibility Wind Dir Wind Speed Gust Speed Precip Events Conditions
12:15 AM 37.4 °F 28.2 °F 15.8 °F 41% 30.17 in 10.0 mi NW 16.1 mph 24.2 mph N/A   Clear
12:35 AM 35.6 °F 25.5 °F 15.8 °F 44% 30.18 in 10.0 mi NNW 17.3 mph 21.9 mph N/A   Clear
12:55 AM 35.6 °F 26.2 °F 17.6 °F 48% 30.19 in 10.0 mi NNW 15.0 mph 20.7 mph N/A   Clear
1:15 AM 33.8 °F 23.2 °F 15.8 °F 48% 30.20 in 10.0 mi NNW 17.3 mph 25.3 mph N/A   Clear
1:35 AM 33.8 °F 24.8 °F 14.0 °F 44% 30.21 in 10.0 mi NNW 12.7 mph 28.8 mph N/A   Clear
1:55 AM 32.0 °F 22.5 °F 12.2 °F 44% 30.21 in 10.0 mi NNW 12.7 mph 18.4 mph N/A   Clear
2:15 AM 32.0 °F 23.6 °F 14.0 °F 48% 30.22 in 10.0 mi NNW 10.4 mph 17.3 mph N/A   Clear
2:35 AM 32.0 °F 23.6 °F 12.2 °F 44% 30.23 in 10.0 mi NW 10.4 mph 19.6 mph N/A   Clear
2:55 AM 32.0 °F 24.2 °F 12.2 °F 44% 30.24 in 10.0 mi NW 9.2 mph 17.3 mph N/A   Clear
3:15 AM 30.2 °F 23.4 °F 14.0 °F 51% 30.24 in 10.0 mi NW 6.9 mph - N/A   Clear
3:35 AM 30.2 °F 22.6 °F 14.0 °F 51% 30.24 in 10.0 mi WNW 8.1 mph - N/A   Clear
3:55 AM 30.2 °F 20.2 °F 12.2 °F 47% 30.24 in 10.0 mi NW 12.7 mph 18.4 mph N/A   Clear
4:15 AM 30.2 °F 22.6 °F 12.2 °F 47% 30.24 in 10.0 mi NNW 8.1 mph - N/A   Clear
4:35 AM 28.4 °F 21.2 °F 14.0 °F 55% 30.24 in 10.0 mi WNW 6.9 mph - N/A   Clear
4:55 AM 28.4 °F 18.0 °F 14.0 °F 55% 30.24 in 10.0 mi NW 12.7 mph - N/A   Clear
5:15 AM 28.4 °F 20.4 °F 12.2 °F 51% 30.25 in 10.0 mi NW 8.1 mph - N/A   Clear
5:35 AM 28.4 °F 19.1 °F 12.2 °F 51% 30.24 in 10.0 mi NW 10.4 mph - N/A   Clear
5:55 AM 28.4 °F 21.2 °F 12.2 °F 51% 30.25 in 10.0 mi NW 6.9 mph - N/A   Clear
6:15 AM 28.4 °F 21.2 °F 12.2 °F 51% 30.25 in 10.0 mi WNW 6.9 mph - N/A   Clear
6:35 AM 26.6 °F 18.2 °F 14.0 °F 59% 30.25 in 10.0 mi WNW 8.1 mph - N/A   Clear
6:55 AM 26.6 °F 17.5 °F 12.2 °F 55% 30.26 in 10.0 mi NW 9.2 mph - N/A   Clear
7:15 AM 26.6 °F 18.2 °F 12.2 °F 55% 30.26 in 10.0 mi WNW 8.1 mph - N/A   Clear
7:35 AM 26.6 °F 18.2 °F 12.2 °F 55% 30.27 in 10.0 mi WNW 8.1 mph - N/A   Clear
7:55 AM 26.6 °F 19.1 °F 12.2 °F 55% 30.27 in 10.0 mi WNW 6.9 mph - N/A   Clear
8:15 AM 26.6 °F 18.2 °F 12.2 °F 55% 30.28 in 10.0 mi WNW 8.1 mph - N/A   Clear
8:35 AM 28.4 °F 19.7 °F 14.0 °F 55% 30.28 in 10.0 mi WNW 9.2 mph - N/A   Clear
8:55 AM 30.2 °F 20.8 °F 12.2 °F 47% 30.29 in 10.0 mi WNW 11.5 mph - N/A   Clear
9:15 AM 30.2 °F 20.8 °F 14.0 °F 51% 30.29 in 10.0 mi NW 11.5 mph - N/A   Clear
9:35 AM 32.0 °F 22.5 °F 14.0 °F 48% 30.30 in 10.0 mi NW 12.7 mph 20.7 mph N/A   Clear
9:55 AM 32.0 °F 20.8 °F 14.0 °F 48% 30.30 in 10.0 mi NNW 17.3 mph 21.9 mph N/A   Clear
10:15 AM 32.0 °F 23.0 °F 12.2 °F 44% 30.31 in 10.0 mi NW 11.5 mph 20.7 mph N/A   Clear
10:35 AM 32.0 °F 21.6 °F 10.4 °F 41% 30.31 in 10.0 mi NW 15.0 mph 19.6 mph N/A   Clear
10:55 AM 33.8 °F 24.8 °F 10.4 °F 38% 30.31 in 10.0 mi NNW 12.7 mph - N/A   Clear
11:15 AM 33.8 °F 24.8 °F 10.4 °F 38% 30.31 in 10.0 mi NNW 12.7 mph 18.4 mph N/A   Clear
11:35 AM 35.6 °F 25.2 °F 8.6 °F 33% 30.30 in 10.0 mi NW 18.4 mph 21.9 mph N/A   Clear
11:55 AM 35.6 °F 27.1 °F 10.4 °F 35% 30.29 in 10.0 mi NNW 12.7 mph 19.6 mph N/A   Clear
12:15 PM 37.4 °F 29.3 °F 10.4 °F 33% 30.28 in 10.0 mi NW 12.7 mph 20.7 mph N/A   Clear
12:35 PM 37.4 °F 29.3 °F 8.6 °F 30% 30.26 in 10.0 mi NNW 12.7 mph 18.4 mph N/A   Clear
12:55 PM 39.2 °F 31.2 °F 10.4 °F 31% 30.25 in 10.0 mi NW 13.8 mph 17.3 mph N/A   Clear
1:15 PM 41.0 °F 33.5 °F 14.0 °F 33% 30.25 in 10.0 mi NW 13.8 mph 18.4 mph N/A   Clear
1:35 PM 41.0 °F 33.9 °F 14.0 °F 33% 30.24 in 10.0 mi WNW 12.7 mph 17.3 mph N/A   Clear
1:55 PM 41.0 °F 33.9 °F 12.2 °F 31% 30.23 in 10.0 mi NNW 12.7 mph 18.4 mph N/A   Clear
2:15 PM 41.0 °F 33.1 °F 10.4 °F 29% 30.23 in 10.0 mi NW 15.0 mph 20.7 mph N/A   Clear
2:35 PM 41.0 °F 34.3 °F 12.2 °F 31% 30.23 in 10.0 mi NNW 11.5 mph 18.4 mph N/A   Clear
2:55 PM 41.0 °F 35.2 °F 12.2 °F 31% 30.23 in 10.0 mi NW 9.2 mph - N/A   Clear
3:15 PM 42.8 °F 36.2 °F 12.2 °F 29% 30.23 in 10.0 mi WNW 12.7 mph 18.4 mph N/A   Clear
3:35 PM 42.8 °F 37.5 °F 12.2 °F 29% 30.23 in 10.0 mi NNW 9.2 mph - N/A   Clear
3:55 PM 42.8 °F 36.6 °F 12.2 °F 29% 30.23 in 10.0 mi NW 11.5 mph 16.1 mph N/A   Clear
4:15 PM 42.8 °F 37.5 °F 12.2 °F 29% 30.23 in 10.0 mi NW 9.2 mph - N/A   Clear
4:35 PM 41.0 °F 35.2 °F 12.2 °F 31% 30.23 in 10.0 mi NW 9.2 mph - N/A   Clear
4:55 PM 41.0 °F 38.0 °F 14.0 °F 33% 30.23 in 10.0 mi NW 4.6 mph - N/A   Clear
5:15 PM 41.0 °F 38.0 °F 14.0 °F 33% 30.23 in 10.0 mi NNW 4.6 mph - N/A   Clear
5:35 PM 39.2 °F - 12.2 °F 33% 30.22 in 10.0 mi Calm Calm - N/A   Clear
5:55 PM 33.8 °F - 14.0 °F 44% 30.22 in 10.0 mi Calm Calm - N/A   Clear
6:15 PM 32.0 °F - 14.0 °F 48% 30.21 in 10.0 mi Calm Calm - N/A   Clear
6:35 PM 32.0 °F - 15.8 °F 51% 30.21 in 10.0 mi Calm Calm - N/A   Clear
6:55 PM 28.4 °F 22.2 °F 15.8 °F 59% 30.21 in 10.0 mi SSW 5.8 mph - N/A   Clear
7:15 PM 28.4 °F 23.3 °F 17.6 °F 64% 30.21 in 10.0 mi SW 4.6 mph - N/A   Clear
7:35 PM 30.2 °F 25.4 °F 15.8 °F 55% 30.21 in 10.0 mi SSW 4.6 mph - N/A   Clear
7:55 PM 28.4 °F - 17.6 °F 64% 30.21 in 10.0 mi Calm Calm - N/A   Clear
8:15 PM 28.4 °F 23.3 °F 15.8 °F 59% 30.20 in 10.0 mi South 4.6 mph - N/A   Clear
8:35 PM 28.4 °F 21.2 °F 17.6 °F 64% 30.19 in 10.0 mi South 6.9 mph - N/A   Clear
8:55 PM 30.2 °F 24.3 °F 17.6 °F 60% 30.18 in 10.0 mi South 5.8 mph - N/A   Clear
9:15 PM 28.4 °F 22.2 °F 17.6 °F 64% 30.18 in 10.0 mi SSE 5.8 mph - N/A   Clear
9:35 PM 28.4 °F 20.4 °F 17.6 °F 64% 30.17 in 10.0 mi SSE 8.1 mph - N/A   Clear
9:55 PM 28.4 °F 20.4 °F 17.6 °F 64% 30.17 in 10.0 mi SSE 8.1 mph - N/A   Clear
10:15 PM 28.4 °F 20.4 °F 17.6 °F 64% 30.17 in 10.0 mi SSE 8.1 mph - N/A   Clear
10:35 PM 28.4 °F 21.2 °F 17.6 °F 64% 30.16 in 10.0 mi SSE 6.9 mph - N/A   Clear
10:55 PM 28.4 °F 23.3 °F 17.6 °F 64% 30.15 in 10.0 mi SSE 4.6 mph - N/A   Clear
11:15 PM 28.4 °F 22.2 °F 17.6 °F 64% 30.15 in 10.0 mi SSE 5.8 mph - N/A   Clear
11:35 PM 28.4 °F 22.2 °F 19.4 °F 69% 30.14 in 10.0 mi SSE 5.8 mph - N/A   Clear
11:55 PM 28.4 °F 23.3 °F 19.4 °F 69% 30.13 in 10.0 mi SSE 4.6 mph - N/A   Clear